Location: Chicago
(41.7813°N, 87.6051°W)
Time: 02:05:52
(UTC-05:00)

ISS - Visible Passes

Search period start: 29 June 2017 00:00
Search period end: 09 July 2017 00:00
Orbit: 401 x 408 km, 51.6° (Epoch: 29 June)

Date Brightness Start Highest point End Pass type
(mag) Time Alt. Az. Time Alt. Az. Time Alt. Az.
04 Jul -1.9 04:42:53 10° S 04:45:27 22° SE 04:48:03 10° E visible
05 Jul -1.2 03:52:13 10° SSE 03:53:25 12° SE 03:54:37 10° ESE visible
06 Jul -3.4 04:34:07 11° SW 04:37:11 52° SE 04:40:23 10° ENE visible
07 Jul -2.4 03:43:52 22° S 03:45:01 27° SE 03:47:51 10° ENE visible
08 Jul -1.4 02:53:34 14° ESE 02:53:34 14° ESE 02:54:48 10° E visible
08 Jul -3.6 04:26:12 13° WSW 04:29:02 65° NNW 04:32:17 10° NE visible
